Time,TemperatureF,DewpointF,PressureIn,WindDirection,WindDirectionDegrees,WindSpeedMPH,WindSpeedGustMPH,Humidity,HourlyPrecipIn,Conditions,Clouds,dailyrainin,SoftwareType,DateUTC
2013-05-20 00:03:00,69.0,-99.9,-100.00,North,0,0.0,3.0,-999,-99.99,,,-99.99,,2013-05-20 04:03:00,
2013-05-20 00:13:00,69.0,-99.9,-100.00,North,0,0.0,3.0,-999,-99.99,,,-99.99,,2013-05-20 04:13:00,
2013-05-20 00:23:00,69.0,-99.9,-100.00,North,0,0.0,3.0,-999,-99.99,,,-99.99,,2013-05-20 04:23:00,
2013-05-20 00:33:00,69.0,-99.9,-100.00,North,0,0.0,3.0,-999,-99.99,,,-99.99,,2013-05-20 04:33:00,
2013-05-20 00:40:00,69.0,-99.9,-100.00,South,170,1.0,3.0,-999,-99.99,,,-99.99,,2013-05-20 04:40:00,
2013-05-20 01:02:00,69.0,-99.9,-100.00,South,170,1.0,3.0,-999,-99.99,,,-99.99,,2013-05-20 05:02:00,
2013-05-20 01:12:00,69.0,-99.9,-100.00,South,170,1.0,3.0,-999,-99.99,,,-99.99,,2013-05-20 05:12:00,
2013-05-20 01:22:00,69.0,-99.9,-100.00,South,170,1.0,3.0,-999,-99.99,,,-99.99,,2013-05-20 05:22:00,
2013-05-20 01:32:00,69.0,-99.9,-100.00,South,170,1.0,3.0,-999,-99.99,,,-99.99,,2013-05-20 05:32:00,
2013-05-20 01:40:00,69.0,-99.9,-100.00,ESE,110,2.0,3.0,-999,-99.99,,,-99.99,,2013-05-20 05:40:00,
2013-05-20 02:01:00,69.0,-99.9,-100.00,ESE,110,2.0,3.0,-999,-99.99,,,-99.99,,2013-05-20 06:01:00,
2013-05-20 02:11:00,69.0,-99.9,-100.00,ESE,110,2.0,3.0,-999,-99.99,,,-99.99,,2013-05-20 06:11:00,
2013-05-20 02:22:00,69.0,-99.9,-100.00,ESE,110,2.0,3.0,-999,-99.99,,,-99.99,,2013-05-20 06:22:00,
2013-05-20 02:32:00,69.0,-99.9,-100.00,ESE,110,2.0,3.0,-999,-99.99,,,-99.99,,2013-05-20 06:32:00,
2013-05-20 02:40:00,67.0,-99.9,-100.00,SE,130,1.0,2.0,-999,-99.99,,,-99.99,,2013-05-20 06:40:00,
2013-05-20 03:02:00,67.0,-99.9,-100.00,SE,130,1.0,2.0,-999,-99.99,,,-99.99,,2013-05-20 07:02:00,
2013-05-20 03:12:00,67.0,-99.9,-100.00,SE,130,1.0,2.0,-999,-99.99,,,-99.99,,2013-05-20 07:12:00,
2013-05-20 03:22:00,67.0,-99.9,-100.00,SE,130,1.0,2.0,-999,-99.99,,,-99.99,,2013-05-20 07:22:00,
2013-05-20 03:32:00,67.0,-99.9,-100.00,SE,130,1.0,2.0,-999,-99.99,,,-99.99,,2013-05-20 07:32:00,
2013-05-20 03:40:00,68.0,-99.9,-100.00,SE,130,2.0,3.0,-999,-99.99,,,-99.99,,2013-05-20 07:40:00,
2013-05-20 04:01:00,68.0,-99.9,-100.00,SE,130,2.0,3.0,-999,-99.99,,,-99.99,,2013-05-20 08:01:00,
2013-05-20 04:11:00,68.0,-99.9,-100.00,SE,130,2.0,3.0,-999,-99.99,,,-99.99,,2013-05-20 08:11:00,
2013-05-20 04:22:00,68.0,-99.9,-100.00,SE,130,2.0,3.0,-999,-99.99,,,-99.99,,2013-05-20 08:22:00,
2013-05-20 04:32:00,68.0,-99.9,-100.00,SE,130,2.0,3.0,-999,-99.99,,,-99.99,,2013-05-20 08:32:00,
2013-05-20 04:40:00,67.0,-99.9,-100.00,North,0,0.0,0.0,-999,-99.99,,,-99.99,,2013-05-20 08:40:00,
2013-05-20 05:02:00,67.0,-99.9,-100.00,North,0,0.0,0.0,-999,-99.99,,,-99.99,,2013-05-20 09:02:00,
2013-05-20 05:12:00,67.0,-99.9,-100.00,North,0,0.0,0.0,-999,-99.99,,,-99.99,,2013-05-20 09:12:00,
2013-05-20 05:22:00,67.0,-99.9,-100.00,North,0,0.0,0.0,-999,-99.99,,,-99.99,,2013-05-20 09:22:00,
2013-05-20 05:33:00,67.0,-99.9,-100.00,North,0,0.0,0.0,-999,-99.99,,,-99.99,,2013-05-20 09:33:00,
2013-05-20 05:40:00,68.0,-99.9,-100.00,North,0,0.0,1.0,-999,-99.99,,,-99.99,,2013-05-20 09:40:00,
2013-05-20 06:03:00,68.0,-99.9,-100.00,North,0,0.0,1.0,-999,-99.99,,,-99.99,,2013-05-20 10:03:00,
2013-05-20 06:12:00,68.0,-99.9,-100.00,North,0,0.0,1.0,-999,-99.99,,,-99.99,,2013-05-20 10:12:00,
2013-05-20 06:22:00,68.0,-99.9,-100.00,North,0,0.0,1.0,-999,-99.99,,,-99.99,,2013-05-20 10:22:00,
2013-05-20 06:33:00,68.0,-99.9,-100.00,North,0,0.0,1.0,-999,-99.99,,,-99.99,,2013-05-20 10:33:00,
2013-05-20 06:40:00,67.0,-99.9,-100.00,North,0,0.0,1.0,-999,-99.99,,,-99.99,,2013-05-20 10:40:00,
2013-05-20 07:03:00,67.0,-99.9,-100.00,North,0,0.0,1.0,-999,-99.99,,,-99.99,,2013-05-20 11:03:00,
2013-05-20 07:12:00,67.0,-99.9,-100.00,North,0,0.0,1.0,-999,-99.99,,,-99.99,,2013-05-20 11:12:00,
2013-05-20 07:22:00,67.0,-99.9,-100.00,North,0,0.0,1.0,-999,-99.99,,,-99.99,,2013-05-20 11:22:00,
2013-05-20 07:32:00,67.0,-99.9,-100.00,North,0,0.0,1.0,-999,-99.99,,,-99.99,,2013-05-20 11:32:00,
2013-05-20 07:40:00,67.0,-99.9,-100.00,North,0,0.0,1.0,-999,-99.99,,,-99.99,,2013-05-20 11:40:00,
2013-05-20 08:01:00,67.0,-99.9,-100.00,North,0,0.0,1.0,-999,-99.99,,,-99.99,,2013-05-20 12:01:00,
2013-05-20 08:12:00,67.0,-99.9,-100.00,North,0,0.0,1.0,-999,-99.99,,,-99.99,,2013-05-20 12:12:00,
2013-05-20 08:21:00,67.0,-99.9,-100.00,North,0,0.0,1.0,-999,-99.99,,,-99.99,,2013-05-20 12:21:00,
2013-05-20 08:32:00,67.0,-99.9,-100.00,North,0,0.0,1.0,-999,-99.99,,,-99.99,,2013-05-20 12:32:00,
2013-05-20 08:40:00,68.0,-99.9,-100.00,SE,130,2.0,5.0,-999,-99.99,,,-99.99,,2013-05-20 12:40:00,
2013-05-20 09:01:00,68.0,-99.9,-100.00,SE,130,2.0,5.0,-999,-99.99,,,-99.99,,2013-05-20 13:01:00,
2013-05-20 09:11:00,68.0,-99.9,-100.00,SE,130,2.0,5.0,-999,-99.99,,,-99.99,,2013-05-20 13:11:00,
2013-05-20 09:22:00,68.0,-99.9,-100.00,SE,130,2.0,5.0,-999,-99.99,,,-99.99,,2013-05-20 13:22:00,
2013-05-20 09:32:00,68.0,-99.9,-100.00,SE,130,2.0,5.0,-999,-99.99,,,-99.99,,2013-05-20 13:32:00,
2013-05-20 09:40:00,73.0,-99.9,-100.00,North,0,0.0,5.0,-999,-99.99,,,-99.99,,2013-05-20 13:40:00,
2013-05-20 10:01:00,73.0,-99.9,-100.00,North,0,0.0,5.0,-999,-99.99,,,-99.99,,2013-05-20 14:01:00,
2013-05-20 10:11:00,73.0,-99.9,-100.00,North,0,0.0,5.0,-999,-99.99,,,-99.99,,2013-05-20 14:11:00,
2013-05-20 10:22:00,73.0,-99.9,-100.00,North,0,0.0,5.0,-999,-99.99,,,-99.99,,2013-05-20 14:22:00,
2013-05-20 10:32:00,73.0,-99.9,-100.00,North,0,0.0,5.0,-999,-99.99,,,-99.99,,2013-05-20 14:32:00,
2013-05-20 10:40:00,75.0,-99.9,-100.00,SSW,200,1.0,5.0,-999,-99.99,,,-99.99,,2013-05-20 14:40:00,
2013-05-20 11:01:00,75.0,-99.9,-100.00,SSW,200,1.0,5.0,-999,-99.99,,,-99.99,,2013-05-20 15:01:00,
2013-05-20 11:12:00,75.0,-99.9,-100.00,SSW,200,1.0,5.0,-999,-99.99,,,-99.99,,2013-05-20 15:12:00,
2013-05-20 11:22:00,75.0,-99.9,-100.00,SSW,200,1.0,5.0,-999,-99.99,,,-99.99,,2013-05-20 15:22:00,
2013-05-20 11:33:00,75.0,-99.9,-100.00,SSW,200,1.0,5.0,-999,-99.99,,,-99.99,,2013-05-20 15:33:00,
2013-05-20 11:40:00,73.0,-99.9,-100.00,NNW,330,7.0,8.0,-999,-99.99,,,-99.99,,2013-05-20 15:40:00,
2013-05-20 12:03:00,73.0,-99.9,-100.00,NNW,330,7.0,8.0,-999,-99.99,,,-99.99,,2013-05-20 16:03:00,
2013-05-20 12:13:00,73.0,-99.9,-100.00,NNW,330,7.0,8.0,-999,-99.99,,,-99.99,,2013-05-20 16:13:00,
2013-05-20 12:23:00,73.0,-99.9,-100.00,NNW,330,7.0,8.0,-999,-99.99,,,-99.99,,2013-05-20 16:23:00,
2013-05-20 12:33:00,73.0,-99.9,-100.00,NNW,330,7.0,8.0,-999,-99.99,,,-99.99,,2013-05-20 16:33:00,
2013-05-20 12:40:00,75.0,-99.9,-100.00,NNW,330,5.0,6.0,-999,-99.99,,,-99.99,,2013-05-20 16:40:00,
2013-05-20 13:03:00,75.0,-99.9,-100.00,NNW,330,5.0,6.0,-999,-99.99,,,-99.99,,2013-05-20 17:03:00,
2013-05-20 13:12:00,75.0,-99.9,-100.00,NNW,330,5.0,6.0,-999,-99.99,,,-99.99,,2013-05-20 17:12:00,
2013-05-20 13:22:00,75.0,-99.9,-100.00,NNW,330,5.0,6.0,-999,-99.99,,,-99.99,,2013-05-20 17:22:00,
2013-05-20 13:33:00,75.0,-99.9,-100.00,NNW,330,5.0,6.0,-999,-99.99,,,-99.99,,2013-05-20 17:33:00,
2013-05-20 13:40:00,77.0,-99.9,-100.00,NNW,340,2.0,5.0,-999,-99.99,,,-99.99,,2013-05-20 17:40:00,
2013-05-20 14:02:00,77.0,-99.9,-100.00,NNW,340,2.0,5.0,-999,-99.99,,,-99.99,,2013-05-20 18:02:00,
2013-05-20 14:12:00,77.0,-99.9,-100.00,NNW,340,2.0,5.0,-999,-99.99,,,-99.99,,2013-05-20 18:12:00,
2013-05-20 14:23:00,77.0,-99.9,-100.00,NNW,340,2.0,5.0,-999,-99.99,,,-99.99,,2013-05-20 18:23:00,
2013-05-20 14:33:00,77.0,-99.9,-100.00,NNW,340,2.0,5.0,-999,-99.99,,,-99.99,,2013-05-20 18:33:00,
2013-05-20 14:40:00,78.0,-99.9,-100.00,North,360,6.0,7.0,-999,-99.99,,,-99.99,,2013-05-20 18:40:00,
2013-05-20 15:04:00,78.0,-99.9,-100.00,North,360,6.0,7.0,-999,-99.99,,,-99.99,,2013-05-20 19:04:00,
2013-05-20 15:12:00,78.0,-99.9,-100.00,North,360,6.0,7.0,-999,-99.99,,,-99.99,,2013-05-20 19:12:00,
2013-05-20 15:22:00,78.0,-99.9,-100.00,North,360,6.0,7.0,-999,-99.99,,,-99.99,,2013-05-20 19:22:00,
2013-05-20 15:33:00,78.0,-99.9,-100.00,North,360,6.0,7.0,-999,-99.99,,,-99.99,,2013-05-20 19:33:00,
2013-05-20 15:40:00,81.0,-99.9,-100.00,West,260,2.0,3.0,-999,-99.99,,,-99.99,,2013-05-20 19:40:00,
2013-05-20 16:02:00,81.0,-99.9,-100.00,West,260,2.0,3.0,-999,-99.99,,,-99.99,,2013-05-20 20:02:00,
2013-05-20 16:12:00,81.0,-99.9,-100.00,West,260,2.0,3.0,-999,-99.99,,,-99.99,,2013-05-20 20:12:00,
2013-05-20 16:22:00,81.0,-99.9,-100.00,West,260,2.0,3.0,-999,-99.99,,,-99.99,,2013-05-20 20:22:00,
2013-05-20 16:33:00,81.0,-99.9,-100.00,West,260,2.0,3.0,-999,-99.99,,,-99.99,,2013-05-20 20:33:00,
2013-05-20 16:40:00,81.0,-99.9,-100.00,North,360,2.0,3.0,-999,-99.99,,,-99.99,,2013-05-20 20:40:00,
2013-05-20 17:01:00,81.0,-99.9,-100.00,North,360,2.0,3.0,-999,-99.99,,,-99.99,,2013-05-20 21:01:00,
2013-05-20 17:11:00,81.0,-99.9,-100.00,North,360,2.0,3.0,-999,-99.99,,,-99.99,,2013-05-20 21:11:00,
2013-05-20 17:22:00,81.0,-99.9,-100.00,North,360,2.0,3.0,-999,-99.99,,,-99.99,,2013-05-20 21:22:00,
2013-05-20 17:33:00,81.0,-99.9,-100.00,North,360,2.0,3.0,-999,-99.99,,,-99.99,,2013-05-20 21:33:00,
2013-05-20 17:40:00,83.0,-99.9,-100.00,North,0,0.0,2.0,-999,-99.99,,,-99.99,,2013-05-20 21:40:00,
2013-05-20 18:03:00,83.0,-99.9,-100.00,North,0,0.0,2.0,-999,-99.99,,,-99.99,,2013-05-20 22:03:00,
2013-05-20 18:13:00,83.0,-99.9,-100.00,North,0,0.0,2.0,-999,-99.99,,,-99.99,,2013-05-20 22:13:00,
2013-05-20 18:23:00,83.0,-99.9,-100.00,North,0,0.0,2.0,-999,-99.99,,,-99.99,,2013-05-20 22:23:00,
2013-05-20 18:33:00,83.0,-99.9,-100.00,North,0,0.0,2.0,-999,-99.99,,,-99.99,,2013-05-20 22:33:00,
2013-05-20 18:40:00,86.0,-99.9,-100.00,North,0,0.0,2.0,-999,-99.99,,,-99.99,,2013-05-20 22:40:00,
2013-05-20 19:03:00,86.0,-99.9,-100.00,North,0,0.0,2.0,-999,-99.99,,,-99.99,,2013-05-20 23:03:00,
2013-05-20 19:12:00,86.0,-99.9,-100.00,North,0,0.0,2.0,-999,-99.99,,,-99.99,,2013-05-20 23:12:00,
2013-05-20 19:22:00,86.0,-99.9,-100.00,North,0,0.0,2.0,-999,-99.99,,,-99.99,,2013-05-20 23:22:00,
2013-05-20 19:32:00,86.0,-99.9,-100.00,North,0,0.0,2.0,-999,-99.99,,,-99.99,,2013-05-20 23:32:00,
2013-05-20 19:40:00,82.0,-99.9,-100.00,South,180,1.0,6.0,-999,-99.99,,,-99.99,,2013-05-20 23:40:00,
2013-05-20 20:01:00,82.0,-99.9,-100.00,South,180,1.0,6.0,-999,-99.99,,,-99.99,,2013-05-21 00:01:00,
2013-05-20 20:12:00,82.0,-99.9,-100.00,South,180,1.0,6.0,-999,-99.99,,,-99.99,,2013-05-21 00:12:00,
2013-05-20 20:22:00,82.0,-99.9,-100.00,South,180,1.0,6.0,-999,-99.99,,,-99.99,,2013-05-21 00:22:00,
2013-05-20 20:32:00,82.0,-99.9,-100.00,South,180,1.0,6.0,-999,-99.99,,,-99.99,,2013-05-21 00:32:00,
2013-05-20 20:40:00,77.0,-99.9,-100.00,North,0,0.0,2.0,-999,-99.99,,,-99.99,,2013-05-21 00:40:00,
2013-05-20 21:01:00,77.0,-99.9,-100.00,North,0,0.0,2.0,-999,-99.99,,,-99.99,,2013-05-21 01:01:00,
2013-05-20 21:12:00,77.0,-99.9,-100.00,North,0,0.0,2.0,-999,-99.99,,,-99.99,,2013-05-21 01:12:00,
2013-05-20 21:22:00,77.0,-99.9,-100.00,North,0,0.0,2.0,-999,-99.99,,,-99.99,,2013-05-21 01:22:00,
2013-05-20 21:32:00,77.0,-99.9,-100.00,North,0,0.0,2.0,-999,-99.99,,,-99.99,,2013-05-21 01:32:00,
2013-05-20 21:40:00,74.0,-99.9,-100.00,North,0,0.0,1.0,-999,-99.99,,,-99.99,,2013-05-21 01:40:00,
2013-05-20 22:02:00,74.0,-99.9,-100.00,North,0,0.0,1.0,-999,-99.99,,,-99.99,,2013-05-21 02:02:00,
2013-05-20 22:11:00,74.0,-99.9,-100.00,North,0,0.0,1.0,-999,-99.99,,,-99.99,,2013-05-21 02:11:00,
2013-05-20 22:21:00,74.0,-99.9,-100.00,North,0,0.0,1.0,-999,-99.99,,,-99.99,,2013-05-21 02:21:00,
2013-05-20 22:32:00,74.0,-99.9,-100.00,North,0,0.0,1.0,-999,-99.99,,,-99.99,,2013-05-21 02:32:00,
2013-05-20 22:40:00,71.0,-99.9,-100.00,South,170,1.0,2.0,-999,-99.99,,,-99.99,,2013-05-21 02:40:00,
2013-05-20 23:02:00,71.0,-99.9,-100.00,South,170,1.0,2.0,-999,-99.99,,,-99.99,,2013-05-21 03:02:00,
2013-05-20 23:11:00,71.0,-99.9,-100.00,South,170,1.0,2.0,-999,-99.99,,,-99.99,,2013-05-21 03:11:00,
2013-05-20 23:22:00,71.0,-99.9,-100.00,South,170,1.0,2.0,-999,-99.99,,,-99.99,,2013-05-21 03:22:00,
2013-05-20 23:33:00,71.0,-99.9,-100.00,South,170,1.0,2.0,-999,-99.99,,,-99.99,,2013-05-21 03:33:00,
2013-05-20 23:40:00,70.0,-99.9,-100.00,ESE,120,1.0,2.0,-999,-99.99,,,-99.99,,2013-05-21 03:40:00,